Erie, CO

4:01 AM MDT on June 22, 2018 (GMT -0600)
Erie Municipal Airport

Weather History for KEIK - October, 2017

Change the Weather History Date:

Tuesday, October 17, 2017

  Actual Average (KBJC) Record (KBJC)
Temperature  
Mean Temperature 54 °F -  
Max Temperature 79 °F 63 °F 85 °F (1991)
Min Temperature 30 °F 39 °F 20 °F (1984)
Degree Days  
Heating Degree Days 10    
Growing Degree Days 4 (Base 50)    
Moisture  
Dew Point 19 °F    
Average Humidity 36    
Maximum Humidity 80    
Minimum Humidity 6    
Precipitation  
Precipitation 0.00 in - - ()
Sea Level Pressure  
Sea Level Pressure 30.22 in    
Wind  
Wind Speed 3 mph (SSW)    
Max Wind Speed 10 mph    
Max Gust Speed -    
Visibility 10 miles    
Events      
Averages and records for this station are not official NWS values.
T = Trace of Precipitation, MM = Missing Value Source: NWS Daily Summary

Daily Weather History Graph

Daily Weather History Graph

Search for Another Location

Airport or City:

Astronomy

Oct. 17, 2017 Rise Set
Actual Time 7:13 AM MDT 6:17 PM MDT
Civil Twilight 6:45 AM MDT 6:44 PM MDT
Nautical Twilight 6:14 AM MDT 7:15 PM MDT
Astronomical Twilight 5:42 AM MDT 7:47 PM MDT
Moon 4:53 AM MDT (10/17) 5:36 PM MDT (10/17)
Length of Visible Light 11h 58m
Length of Day
11h 04m
Waning Crescent, 4% of the Moon is Illuminated
Oct 17
Waning Crescent
Oct 19
New
Oct 27
First Quarter
Nov 3
Full
Nov 10
Last Quarter

Hourly Weather History & Observations

Time (MDT) Temp. Windchill Dew Point Humidity Pressure Visibility Wind Dir Wind Speed Gust Speed Precip Events Conditions
12:18 AM 42.4 °F - 23.4 °F 47% 30.31 in 10.0 mi Calm Calm - N/A   Clear
12:36 AM 41.4 °F 39.4 °F 23.2 °F 48% 30.31 in 10.0 mi SW 3.5 mph - N/A   Clear
12:53 AM 42.4 °F 39.6 °F 24.8 °F 50% 30.31 in 10.0 mi SW 4.6 mph - N/A   Clear
1:18 AM 42.1 °F - 24.8 °F 50% 30.31 in 10.0 mi Calm Calm - N/A   Clear
1:36 AM 41.0 °F 39.0 °F 24.4 °F 52% 30.31 in 10.0 mi South 3.5 mph - N/A   Clear
1:54 AM 42.3 °F 40.5 °F 23.7 °F 48% 30.30 in 10.0 mi South 3.5 mph - N/A   Clear
2:18 AM 39.9 °F 36.7 °F 23.7 °F 52% 30.30 in 10.0 mi South 4.6 mph - N/A   Clear
2:35 AM 39.4 °F - 23.0 °F 52% 30.30 in 10.0 mi Calm Calm - N/A   Clear
2:53 AM 37.8 °F - 23.7 °F 57% 30.30 in 10.0 mi Calm Calm - N/A   Clear
3:18 AM 36.7 °F 34.1 °F 24.6 °F 62% 30.30 in 10.0 mi SSE 3.5 mph - N/A   Clear
3:36 AM 33.8 °F 30.8 °F 25.9 °F 73% 30.30 in 10.0 mi SW 3.5 mph - N/A   Clear
3:54 AM 33.4 °F - 25.5 °F 73% 30.30 in 10.0 mi Calm Calm - N/A   Clear
4:18 AM 33.3 °F - 25.3 °F 73% 30.29 in 10.0 mi Calm Calm - N/A   Clear
4:36 AM 31.1 °F - 25.7 °F 80% 30.30 in 10.0 mi Calm Calm - N/A   Clear
4:54 AM 32.0 °F 28.7 °F 25.3 °F 76% 30.30 in 10.0 mi South 3.5 mph - N/A   Clear
5:18 AM 31.1 °F - 25.7 °F 80% 30.31 in 10.0 mi Calm Calm - N/A   Clear
5:36 AM 30.9 °F - 25.0 °F 79% 30.31 in 10.0 mi Calm Calm - N/A   Clear
5:54 AM 30.9 °F 27.5 °F 25.2 °F 79% 30.30 in 10.0 mi South 3.5 mph - N/A   Clear
6:18 AM 31.1 °F 27.7 °F 24.6 °F 77% 30.30 in 10.0 mi South 3.5 mph - N/A   Clear
6:36 AM 31.6 °F 28.3 °F 24.3 °F 74% 30.31 in 10.0 mi SSW 3.5 mph - N/A   Clear
6:54 AM 32.0 °F - 23.5 °F 71% 30.30 in 10.0 mi Calm Calm - N/A   Clear
7:18 AM 31.6 °F - 24.4 °F 75% 30.30 in 10.0 mi Calm Calm - N/A   Clear
7:36 AM 31.1 °F 27.7 °F 24.4 °F 76% 30.30 in 10.0 mi SW 3.5 mph - N/A   Clear
7:54 AM 32.0 °F - 25.9 °F 78% 30.30 in 10.0 mi Calm Calm - N/A   Clear
8:18 AM 37.0 °F 34.5 °F 28.2 °F 70% 30.31 in 10.0 mi West 3.5 mph - N/A   Clear
8:36 AM 41.4 °F 39.4 °F 26.4 °F 55% 30.31 in 10.0 mi South 3.5 mph - N/A   Clear
8:53 AM 45.7 °F - 24.3 °F 43% 30.31 in 10.0 mi Calm Calm - N/A   Clear
9:18 AM 50.4 °F - 24.8 °F 37% 30.30 in 10.0 mi Calm Calm - N/A   Clear
9:36 AM 54.3 °F - 24.6 °F 32% 30.30 in 10.0 mi Calm Calm - N/A   Clear
9:54 AM 57.4 °F - 24.6 °F 28% 30.29 in 10.0 mi Calm Calm - N/A   Clear
10:18 AM 60.6 °F - 25.5 °F 26% 30.28 in 10.0 mi Calm Calm - N/A   Clear
10:36 AM 64.4 °F - 14.2 °F 14% 30.28 in 10.0 mi Calm Calm - N/A   Clear
11:18 AM 69.6 °F - 17.6 °F 14% 30.27 in 10.0 mi South 8.1 mph - N/A   Clear
11:36 AM 70.5 °F - 12.0 °F 11% 30.26 in 10.0 mi South 10.4 mph - N/A   Clear
11:54 AM 71.8 °F - 5.9 °F 8% 30.25 in 10.0 mi SSE 9.2 mph - N/A   Clear
12:18 PM 73.6 °F - 9.7 °F 9% 30.24 in 10.0 mi SSE 5.8 mph - N/A   Clear
12:36 PM 74.3 °F - 10.2 °F 9% 30.23 in 10.0 mi SSE 5.8 mph - N/A   Clear
12:54 PM 74.8 °F - 10.2 °F 8% 30.22 in 10.0 mi SE 4.6 mph - N/A   Clear
1:18 PM 75.6 °F - 10.0 °F 8% 30.20 in 10.0 mi Calm Calm - N/A   Clear
1:36 PM 75.7 °F - 11.3 °F 9% 30.19 in 10.0 mi Calm Calm - N/A   Clear
1:54 PM 75.7 °F - 10.9 °F 8% 30.18 in 10.0 mi East 4.6 mph - N/A   Clear
2:18 PM 77.0 °F - 9.7 °F 8% 30.16 in 10.0 mi Calm Calm - N/A   Clear
2:36 PM 76.5 °F - 9.0 °F 8% 30.16 in 10.0 mi SE 3.5 mph - N/A   Clear
2:54 PM 78.1 °F - 7.7 °F 7% 30.15 in 10.0 mi NW 4.6 mph - N/A   Clear
3:18 PM 79.0 °F - 10.9 °F 8% 30.14 in 10.0 mi SSE 4.6 mph - N/A   Clear
3:36 PM 78.3 °F - 6.4 °F 6% 30.14 in 10.0 mi Calm Calm - N/A   Clear
3:54 PM 77.2 °F - 7.7 °F 7% 30.14 in 10.0 mi SSW 5.8 mph - N/A   Clear
4:18 PM 77.7 °F - 8.2 °F 7% 30.14 in 10.0 mi SSW 5.8 mph - N/A   Clear
4:36 PM 75.2 °F - 9.9 °F 8% 30.13 in 10.0 mi SSW 4.6 mph - N/A   Clear
4:54 PM 74.8 °F - 10.6 °F 9% 30.13 in 10.0 mi SSW 3.5 mph - N/A   Clear
5:18 PM 71.2 °F - 12.2 °F 10% 30.13 in 10.0 mi SW 3.5 mph - N/A   Clear
5:36 PM 71.8 °F - 15.4 °F 12% 30.12 in 10.0 mi SSW 3.5 mph - N/A   Clear
5:54 PM 70.2 °F - 20.7 °F 15% 30.13 in 10.0 mi Calm Calm - N/A   Clear
6:14 PM 64.6 °F - 23.5 °F 21% 30.13 in 10.0 mi Calm Calm - N/A   Clear
6:38 PM 63.9 °F - 18.3 °F 17% 30.13 in 10.0 mi SW 4.6 mph - N/A   Clear
6:56 PM 61.0 °F - 19.2 °F 20% 30.14 in 10.0 mi WNW 5.8 mph - N/A   Clear
7:18 PM 57.2 °F - 21.2 °F 25% 30.14 in 10.0 mi South 3.5 mph - N/A   Clear
7:36 PM 56.7 °F - 21.0 °F 25% 30.14 in 10.0 mi Calm Calm - N/A   Clear
7:55 PM 51.8 °F - 23.4 °F 33% 30.14 in 10.0 mi SSW 6.9 mph - N/A   Clear
8:18 PM 51.4 °F - 23.0 °F 33% 30.14 in 10.0 mi SSW 4.6 mph - N/A   Clear
8:36 PM 50.9 °F - 22.6 °F 33% 30.13 in 10.0 mi SSW 6.9 mph - N/A   Clear
8:54 PM 48.6 °F - 24.4 °F 39% 30.13 in 10.0 mi South 3.5 mph - N/A   Clear
9:18 PM 48.6 °F - 23.4 °F 37% 30.14 in 10.0 mi South 4.6 mph - N/A   Clear
9:36 PM 48.2 °F - 22.8 °F 37% 30.14 in 10.0 mi South 4.6 mph - N/A   Clear
9:54 PM 46.0 °F 43.9 °F 25.9 °F 45% 30.13 in 10.0 mi SW 4.6 mph - N/A   Clear
10:18 PM 52.2 °F - 21.2 °F 30% 30.13 in 10.0 mi SW 5.8 mph - N/A   Clear
10:36 PM 54.3 °F - 18.7 °F 25% 30.13 in 10.0 mi SSW 8.1 mph - N/A   Clear
10:54 PM 53.8 °F - 19.0 °F 26% 30.12 in 10.0 mi SW 6.9 mph - N/A   Clear
11:18 PM 54.9 °F - 16.9 °F 22% 30.12 in 10.0 mi SW 8.1 mph - N/A   Clear
11:36 PM 58.5 °F - 12.4 °F 16% 30.12 in 10.0 mi SSW 4.6 mph - N/A   Clear
11:54 PM 55.6 °F - 16.7 °F 22% 30.11 in 10.0 mi SSW 4.6 mph - N/A   Clear